| time (UTC) | temp F | wind direction | speed MPH | gust MPH | rain 1hr in | rain 24hr in | rain mn in | humidity % | barometer mb |
| 20260901064820 | 80 | 303 | 0.0 | 2.0 | 0.00 | 0.05 | 0.05 | 67 | 1014.3 |
| 20260901063813 | 80 | 303 | 1.0 | 3.0 | 0.00 | 0.05 | 0.05 | 66 | 1014.3 |
| 20260901062827 | 81 | 303 | 1.0 | 3.0 | 0.00 | 0.05 | 0.05 | 65 | 1014.3 |
| 20260901061839 | 81 | 303 | 0.0 | 3.0 | 0.00 | 0.05 | 0.05 | 64 | 1014.2 |
| 20260901060814 | 81 | 303 | 1.0 | 3.0 | 0.00 | 0.05 | 0.05 | 62 | 1014.3 |
| 20260901055846 | 82 | 303 | 0.0 | 3.0 | 0.00 | 0.05 | 0.05 | 61 | 1014.3 |
| 20260901054840 | 82 | 303 | 0.0 | 2.0 | 0.00 | 0.05 | 0.05 | 60 | 1014.3 |
| 20260901053832 | 82 | 303 | 1.0 | 4.0 | 0.00 | 0.05 | 0.05 | 59 | 1014.2 |
| 20260901052825 | 82 | 303 | 1.0 | 2.0 | 0.00 | 0.05 | 0.05 | 58 | 1014.3 |
| 20260901051818 | 82 | 303 | 0.0 | 2.0 | 0.00 | 0.05 | 0.05 | 58 | 1014.3 |
| 20260901050814 | 82 | 303 | 0.0 | 1.0 | 0.00 | 0.05 | 0.05 | 57 | 1014.3 |
| 20260901045826 | 82 | 303 | 0.0 | 2.0 | 0.00 | 0.06 | 0.05 | 57 | 1014.2 |
| 20260901044820 | 82 | 303 | 0.0 | 1.0 | 0.00 | 0.06 | 0.05 | 56 | 1014.3 |
| 20260901043852 | 83 | 303 | 0.0 | 1.0 | 0.00 | 0.06 | 0.05 | 56 | 1014.2 |
| 20260901042824 | 83 | 303 | 0.0 | 0.0 | 0.00 | 0.06 | 0.05 | 55 | 1014.1 |
| 20260901041821 | 83 | 303 | 0.0 | 1.0 | 0.00 | 0.06 | 0.05 | 55 | 1014.2 |
| 20260901040815 | 83 | 303 | 0.0 | 3.0 | 0.00 | 0.06 | 0.05 | 54 | 1014.0 |
| 20260901035825 | 83 | 303 | 0.0 | 1.0 | 0.00 | 0.06 | 0.05 | 54 | 1013.9 |
| 20260901034818 | 84 | 303 | 0.0 | 1.0 | 0.00 | 0.06 | 0.05 | 54 | 1013.9 |
| 20260901033829 | 84 | 303 | 0.0 | 2.0 | 0.00 | 0.06 | 0.05 | 55 | 1013.9 |
| 20260901032828 | 84 | 303 | 0.0 | 1.0 | 0.00 | 0.06 | 0.05 | 55 | 1013.7 |
| 20260901031841 | 84 | 303 | 0.0 | 1.0 | 0.00 | 0.06 | 0.05 | 54 | 1013.6 |
| 20260901030812 | 84 | 303 | 0.0 | 0.0 | 0.00 | 0.06 | 0.05 | 52 | 1013.3 |
| 20260901025824 | 84 | 303 | 0.0 | 1.0 | 0.00 | 0.06 | 0.05 | 51 | 1013.2 |
| 20260901024819 | 85 | 303 | 0.0 | 0.0 | 0.00 | 0.06 | 0.05 | 53 | 1013.1 |
| 20260901023816 | 85 | 303 | 0.0 | 0.0 | 0.00 | 0.06 | 0.05 | 50 | 1012.9 |
| 20260901022830 | 86 | 303 | 0.0 | 1.0 | 0.00 | 0.06 | 0.05 | 50 | 1012.8 |
| 20260901021824 | 86 | 303 | 0.0 | 1.0 | 0.00 | 0.06 | 0.05 | 48 | 1012.9 |
| 20260901020816 | 86 | 303 | 0.0 | 0.0 | 0.00 | 0.06 | 0.05 | 48 | 1012.7 |
| 20260901015828 | 86 | 303 | 0.0 | 0.0 | 0.00 | 0.06 | 0.05 | 47 | 1012.6 |
| 20260901014824 | 87 | 303 | 0.0 | 0.0 | 0.00 | 0.06 | 0.05 | 46 | 1012.5 |
| 20260901013817 | 87 | 303 | 0.0 | 0.0 | 0.00 | 0.06 | 0.05 | 46 | 1012.6 |
| 20260901012830 | 87 | 303 | 0.0 | 0.0 | 0.00 | 0.06 | 0.05 | 45 | 1012.4 |
| 20260901011841 | 88 | 303 | 0.0 | 0.0 | 0.00 | 0.06 | 0.05 | 46 | 1012.5 |
| 20260901010833 | 89 | 303 | 0.0 | 2.0 | 0.00 | 0.06 | 0.05 | 45 | 1012.5 |
| 20260901005825 | 89 | 303 | 0.0 | 2.0 | 0.00 | 0.06 | 0.05 | 45 | 1012.7 |
| 20260901004841 | 89 | 303 | 1.0 | 3.0 | 0.00 | 0.06 | 0.05 | 44 | 1012.6 |
| 20260901003814 | 89 | 303 | 0.0 | 1.0 | 0.00 | 0.06 | 0.05 | 44 | 1012.7 |
| 20260901002847 | 90 | 303 | 0.0 | 3.0 | 0.00 | 0.06 | 0.05 | 43 | 1012.9 |
| 20260901001817 | 91 | 303 | 0.0 | 2.0 | 0.00 | 0.06 | 0.05 | 43 | 1012.8 |
| 20260901000831 | 91 | 303 | 0.0 | 3.0 | 0.00 | 0.06 | 0.05 | 43 | 1012.9 |
| 20260831235824 | 91 | 303 | 1.0 | 3.0 | 0.00 | 0.06 | 0.05 | 41 | 1013.1 |
| 20260831234841 | 91 | 303 | 0.0 | 2.0 | 0.00 | 0.06 | 0.05 | 43 | 1013.1 |
| 20260831233853 | 91 | 303 | 0.0 | 3.0 | 0.00 | 0.06 | 0.05 | 44 | 1013.2 |
| 20260831232825 | 91 | 303 | 2.0 | 5.0 | 0.00 | 0.06 | 0.05 | 44 | 1013.2 |
| 20260831231838 | 90 | 303 | 0.0 | 6.0 | 0.00 | 0.06 | 0.05 | 46 | 1013.2 |
| 20260831230830 | 90 | 303 | 0.0 | 4.0 | 0.00 | 0.06 | 0.05 | 48 | 1013.3 |
| 20260831225821 | 89 | 303 | 3.0 | 8.0 | 0.00 | 0.06 | 0.05 | 47 | 1013.3 |
| 20260831224838 | 89 | 303 | 4.0 | 10.0 | 0.00 | 0.06 | 0.05 | 48 | 1013.5 |
| 20260831223830 | 88 | 303 | 1.0 | 8.0 | 0.00 | 0.06 | 0.05 | 49 | 1013.6 |
| 20260831222822 | 88 | 303 | 2.0 | 8.0 | 0.00 | 0.06 | 0.05 | 49 | 1013.8 |
| 20260831221816 | 89 | 303 | 3.0 | 9.0 | 0.00 | 0.06 | 0.05 | 49 | 1014.1 |
| 20260831220830 | 88 | 303 | 2.0 | 9.0 | 0.00 | 0.06 | 0.05 | 51 | 1014.3 |
| 20260831215826 | 87 | 303 | 2.0 | 9.0 | 0.00 | 0.06 | 0.05 | 54 | 1014.6 |
| 20260831214820 | 88 | 303 | 1.0 | 6.0 | 0.00 | 0.06 | 0.05 | 54 | 1015.1 |
| 20260831213814 | 87 | 303 | 3.0 | 10.0 | 0.00 | 0.06 | 0.05 | 54 | 1015.3 |
| 20260831212827 | 87 | 303 | 3.0 | 8.0 | 0.00 | 0.06 | 0.05 | 54 | 1015.6 |
| 20260831211819 | 87 | 303 | 2.0 | 9.0 | 0.00 | 0.06 | 0.05 | 55 | 1015.6 |
| 20260831210816 | 87 | 303 | 3.0 | 6.0 | 0.00 | 0.06 | 0.05 | 54 | 1016.0 |
| 20260831205847 | 85 | 303 | 4.0 | 12.0 | 0.00 | 0.06 | 0.05 | 57 | 1016.1 |
| 20260831204821 | 86 | 303 | 2.0 | 6.0 | 0.00 | 0.06 | 0.05 | 57 | 1016.3 |
| 20260831203813 | 85 | 303 | 4.0 | 10.0 | 0.00 | 0.06 | 0.05 | 57 | 1016.4 |
| 20260831202845 | 85 | 303 | 3.0 | 9.0 | 0.00 | 0.06 | 0.05 | 59 | 1016.5 |
| 20260831201817 | 84 | 303 | 1.0 | 10.0 | 0.00 | 0.06 | 0.05 | 61 | 1016.5 |
| 20260831200813 | 84 | 303 | 3.0 | 8.0 | 0.00 | 0.06 | 0.05 | 61 | 1016.6 |
| 20260831195826 | 83 | 303 | 2.0 | 10.0 | 0.00 | 0.06 | 0.05 | 66 | 1016.6 |
| 20260831194818 | 81 | 303 | 2.0 | 6.0 | 0.00 | 0.06 | 0.05 | 70 | 1016.7 |
| 20260831193850 | 80 | 303 | 3.0 | 6.0 | 0.00 | 0.06 | 0.05 | 71 | 1016.6 |
| 20260831192821 | 79 | 303 | 3.0 | 9.0 | 0.00 | 0.06 | 0.05 | 70 | 1016.9 |
| 20260831191814 | 79 | 303 | 1.0 | 8.0 | 0.00 | 0.06 | 0.05 | 73 | 1016.8 |
| 20260831190831 | 78 | 303 | 1.0 | 8.0 | 0.00 | 0.06 | 0.05 | 75 | 1016.8 |
| 20260831185823 | 79 | 303 | 3.0 | 13.0 | 0.00 | 0.06 | 0.05 | 76 | 1016.8 |
| 20260831184816 | 78 | 303 | 1.0 | 6.0 | 0.00 | 0.06 | 0.05 | 76 | 1017.1 |
| 20260831183827 | 78 | 303 | 2.0 | 6.0 | 0.00 | 0.06 | 0.05 | 75 | 1016.8 |
| 20260831182819 | 78 | 303 | 1.0 | 4.0 | 0.00 | 0.06 | 0.05 | 78 | 1016.8 |
| 20260831181817 | 78 | 303 | 1.0 | 8.0 | 0.00 | 0.06 | 0.05 | 80 | 1016.9 |
| 20260831180831 | 77 | 303 | 1.0 | 3.0 | 0.00 | 0.06 | 0.05 | 82 | 1017.1 |
| 20260831175825 | 77 | 303 | 1.0 | 4.0 | 0.00 | 0.06 | 0.05 | 83 | 1017.2 |
| 20260831174819 | 76 | 303 | 1.0 | 5.0 | 0.00 | 0.06 | 0.05 | 84 | 1017.3 |
| 20260831173816 | 76 | 303 | 3.0 | 6.0 | 0.00 | 0.06 | 0.05 | 85 | 1017.4 |
| 20260831172830 | 76 | 303 | 1.0 | 4.0 | 0.00 | 0.06 | 0.05 | 86 | 1017.7 |
| 20260831171823 | 76 | 303 | 1.0 | 3.0 | 0.00 | 0.06 | 0.05 | 87 | 1017.6 |
| 20260831170816 | 76 | 303 | 1.0 | 4.0 | 0.00 | 0.06 | 0.05 | 88 | 1017.3 |
| 20260831165829 | 75 | 303 | 1.0 | 5.0 | 0.00 | 0.06 | 0.05 | 88 | 1017.1 |
| 20260831164826 | 75 | 303 | 2.0 | 8.0 | 0.00 | 0.06 | 0.05 | 88 | 1017.2 |
| 20260831163817 | 75 | 303 | 1.0 | 4.0 | 0.00 | 0.06 | 0.05 | 88 | 1017.2 |
| 20260831162830 | 75 | 303 | 2.0 | 4.0 | 0.00 | 0.06 | 0.05 | 88 | 1017.2 |
| 20260831161823 | 75 | 303 | 0.0 | 3.0 | 0.01 | 0.06 | 0.05 | 88 | 1017.2 |
| 20260831160815 | 75 | 303 | 1.0 | 5.0 | 0.01 | 0.06 | 0.05 | 88 | 1016.9 |
| 20260831155833 | 74 | 303 | 3.0 | 6.0 | 0.01 | 0.06 | 0.05 | 87 | 1016.8 |
| 20260831154826 | 74 | 303 | 1.0 | 4.0 | 0.02 | 0.06 | 0.05 | 86 | 1017.1 |
| 20260831153840 | 75 | 303 | 0.0 | 2.0 | 0.02 | 0.06 | 0.05 | 87 | 1017.3 |
| 20260831152831 | 75 | 303 | 0.0 | 0.0 | 0.04 | 0.06 | 0.05 | 86 | 1017.4 |
| 20260831151824 | 75 | 303 | 0.0 | 2.0 | 0.04 | 0.05 | 0.04 | 85 | 1017.3 |
| 20260831150814 | 75 | 303 | 1.0 | 5.0 | 0.04 | 0.05 | 0.04 | 84 | 1017.1 |
| 20260831145831 | 76 | 303 | 0.0 | 4.0 | 0.04 | 0.05 | 0.04 | 84 | 1016.9 |
| 20260831144823 | 76 | 303 | 0.0 | 2.0 | 0.03 | 0.04 | 0.03 | 82 | 1016.9 |
| 20260831143818 | 77 | 303 | 1.0 | 3.0 | 0.02 | 0.03 | 0.02 | 79 | 1016.7 |
| 20260831142831 | 78 | 303 | 3.0 | 10.0 | 0.01 | 0.02 | 0.01 | 76 | 1016.3 |
| 20260831141822 | 78 | 303 | 3.0 | 9.0 | 0.00 | 0.01 | 0.00 | 72 | 1016.1 |
| 20260831140819 | 79 | 303 | 4.0 | 10.0 | 0.00 | 0.01 | 0.00 | 71 | 1015.8 |
| 20260831135832 | 79 | 303 | 5.0 | 13.0 | 0.00 | 0.01 | 0.00 | 70 | 1015.5 |
| 20260831134828 | 80 | 303 | 5.0 | 10.0 | 0.00 | 0.01 | 0.00 | 69 | 1015.3 |
| 20260831133820 | 81 | 303 | 2.0 | 9.0 | 0.00 | 0.01 | 0.00 | 66 | 1015.1 |
| 20260831132832 | 81 | 303 | 2.0 | 9.0 | 0.00 | 0.01 | 0.00 | 64 | 1014.8 |
| 20260831131847 | 81 | 303 | 2.0 | 5.0 | 0.00 | 0.01 | 0.00 | 64 | 1014.4 |
| 20260831130824 | 80 | 303 | 1.0 | 4.0 | 0.00 | 0.01 | 0.00 | 65 | 1014.2 |
| 20260831125818 | 80 | 303 | 0.0 | 2.0 | 0.00 | 0.01 | 0.00 | 66 | 1014.0 |
| 20260831124830 | 80 | 303 | 0.0 | 2.0 | 0.00 | 0.01 | 0.00 | 66 | 1014.0 |
| 20260831123844 | 81 | 303 | 0.0 | 3.0 | 0.00 | 0.01 | 0.00 | 66 | 1013.9 |
| 20260831122816 | 81 | 303 | 0.0 | 3.0 | 0.00 | 0.01 | 0.00 | 65 | 1013.7 |
| 20260831121853 | 81 | 303 | 1.0 | 4.0 | 0.00 | 0.01 | 0.00 | 65 | 1013.5 |
| 20260831120821 | 81 | 303 | 1.0 | 4.0 | 0.00 | 0.01 | 0.00 | 66 | 1013.3 |
| 20260831115853 | 81 | 303 | 2.0 | 4.0 | 0.00 | 0.01 | 0.00 | 65 | 1013.1 |
| 20260831114826 | 81 | 303 | 0.0 | 2.0 | 0.00 | 0.01 | 0.00 | 63 | 1013.1 |